Regional Weather Roundup
Issued by NWS

Home | Current Version | Previous Version | Text Only | Print | Product List | Glossary On
Versions: 1 2 3 4 5 6 7 8 9 10 11 12 13 14 15 16 17 18 19 20 21 22 23 24 25 26 27 28 29 30 31 32 33 34 35 36 37 38 39 40 41 42 43 44 45 46 47 48 49 50
888
ASUS44 KLIX 281705
RWRLA
LOUISIANA WEATHER ROUNDUP
NATIONAL WEATHER SERVICE NEW ORLEANS LA
1100 AM CST FRI NOV 28 2014

NOTE: "FAIR" INDICATES FEW OR NO CLOUDS BELOW 12,000 FEET WITH NO
      SIGNIFICANT WEATHER AND/OR OBSTRUCTIONS TO VISIBILITY.
      SKY/WX - SKY CONDITION AND SIGNIFICANT WEATHER.
      TMP - AIR TEMPERATURE.    DP   - DEWPOINT TEMPERATURE.
      RH  - RELATIVE HUMIDITY.  PRES - PRESSURE.
      HX  - HEAT INDEX.         WCI  - WIND CHILL INDEX.

*  THESE STATIONS ARE NOT NWS OR FAA STATIONS AND ARE NOT UNDER
   NWS QUALITY CONTROL.

LAZ040-048-061>063-065-066-069-281800-
SOUTHEAST LOUISIANA

CITY           SKY/WX    TMP DP  RH WIND       PRES   REMARKS
N.O. AUDUBON   NOT AVBL
N.O. INTL ARPT SUNNY     55  36  48 SE6       30.41F
N.O. LAKEFRONT SUNNY     54  39  57 E13       30.42F
N.O. DOWNTOWN* FAIR      54  37  54 NE3       30.42F
SLIDELL        SUNNY     54  30  40 VRB3      30.42F
BATON ROUGE    SUNNY     54  31  41 VRB6      30.41F
BOOTHVILLE     SUNNY     57  46  66 NE10      30.42F
BELLE CHASSE   MOSUNNY   57  37  47 E9        30.41F
BOGALUSA*        N/A     53  30  40 SE3       30.43F
NEW ROADS*     FAIR      53  33  47 E5        30.41F
GONZALES*      FAIR      56  35  46 NE5       30.40F
HAMMOND*       SUNNY     54  27  35 S5        30.43F
HOUMA*         SUNNY     55  43  62 E8        30.41F
PORT FOURCHON* SUNNY     57  46  67 E13       30.43F

$$

LAZ041-044-053-054-281800-
SOUTHWEST LOUISIANA

CITY           SKY/WX    TMP DP  RH WIND       PRES   REMARKS
LAKE CHARLES   SUNNY     59  46  62 SE10      30.37F
LAFAYETTE      SUNNY     56  38  50 VRB6      30.40F
PATTERSON      SUNNY     55  37  50 NE7       30.43F
SALT POINT       N/A     61  42  49 SE9       30.39F
NEW IBERIA     SUNNY     57  37  47 VRB6      30.41F
CHENAULT AIRPK SUNNY     57  45  62 SE7       30.38F

$$

LAZ027-028-281800-
CENTRAL LOUISIANA

CITY           SKY/WX    TMP DP  RH WIND       PRES   REMARKS
FORT POLK      SUNNY     55  40  56 S10       30.36F
ALEXANDRIA INT SUNNY     51  35  54 SE9       30.37F
ALEXANDRIA     SUNNY     55  36  48 VRB5      30.39F

$$

LAZ001-002-281800-
NORTHWEST LOUISIANA

CITY           SKY/WX    TMP DP  RH WIND       PRES   REMARKS
SHREVEPORT     SUNNY     54  35  48 S9        30.32F
BARKSDALE AFB  SUNNY     52  34  50 S10       30.33F
DTN SHREVEPORT SUNNY     52  34  50 S10       30.33F

$$

LAZ014-016-281800-
NORTHEAST LOUISIANA

CITY           SKY/WX    TMP DP  RH WIND       PRES   REMARKS
MONROE         SUNNY     51  36  56 SE7       30.38F
TALLULAH       SUNNY     52  33  48 SE12      30.40F

$$




USA.gov is the U.S. government's official web portal to all federal, state and local government web resources and services.